Regional Weather Roundup
Issued by NWS

Home | Current Version | Previous Version | Graphics & Text | Print | Product List | Glossary On
Versions: 1 2 3 4 5 6 7 8 9 10 11 12 13 14 15 16 17 18 19 20 21 22 23 24 25 26 27 28 29 30 31 32 33 34 35 36 37 38 39 40 41 42 43 44 45 46 47 48 49 50
000
ASUS43 KDMX 230707
RWRIA

WEATHER ROUNDUP FOR IOWA
NATIONAL WEATHER SERVICE DES MOINES IA
100 AM CST SUN NOV 23 2014

NOTE: "FAIR" INDICATES FEW OR NO CLOUDS BELOW 12,000 FEET WITH NO
SIGNIFICANT WEATHER AND/OR OBSTRUCTIONS TO VISIBILITY.

* - THESE STATIONS ARE NOT NWS STATIONS...THUS NOT UNDER NWS
QUALITY CONTROL.  THEY ALSO DO NOT REPORT WEATHER SUCH
AS PRECIPITATION OR FOG.

IAZ001>003-012>014-020>022-031>034-043>046-230800-
   NORTHWEST IOWA

CITY           SKY/WX    TMP DP  RH WIND       PRES   REMARKS
CARROLL *      CLOUDY    52  52 100 S16G24    29.53F
CHEROKEE *     MOCLDY    52  52 100 S12       29.49F
DENISON *      CLOUDY    54  54 100 S15G23    29.51F
LE MARS *      CLOUDY    52  50  93 S12       29.48F
ORANGE CITY *  MOCLDY    52  48  87 S16       29.47F FOG
SHELDON *      CLOUDY    50  50 100 S13       29.46F
SIOUX CITY     CLOUDY    53  49  86 SE8       29.49F
SPENCER        CLOUDY    50  48  93 S13       29.48F
STORM LAKE *   MOCLDY    52  50  93 S20G28    29.51F
$$

IAZ055>058-069>071-079>083-090>094-230800-
   SOUTHWEST IOWA

CITY           SKY/WX    TMP DP  RH WIND       PRES   REMARKS
ATLANTIC *     CLOUDY    52  52 100 S15       29.56F
AUDUBON *      CLOUDY    52  46  82 S16G23    29.56F
CLARINDA *     CLOUDY    54  52  94 S10       29.62F
COUNCIL BLFS * CLOUDY    54  54 100 S18G24    29.53F
CRESTON *      CLOUDY    52  52 100 S15       29.62F FOG
HARLAN  *      CLOUDY    52  52 100 S14G20    29.58F
LAMONI         CLOUDY    53  51  93 S12       29.64F
RED OAK *      CLOUDY    54  52  94 S13       29.58F
SHENANDOAH *   CLOUDY    54  52  94 S13       29.59F
$$

IAZ047>049-059>061-072>074-084-230800-
   CENTRAL IOWA

CITY           SKY/WX    TMP DP  RH WIND       PRES   REMARKS
AMES           CLOUDY    52  49  89 S12       29.60F
ANKENY *       CLOUDY    54  52  94 S10G16    29.62F
CHARITON *     CLOUDY    54  50  87 S15       29.64F
DES MOINES     CLOUDY    55  50  83 S15       29.62F
GRINNELL*      CLOUDY    54  50  87 S14       29.65F
KNOXVILLE *    CLOUDY    54  50  87 S13       29.63F
MARSHALLTOWN   CLOUDY    53  49  86 S15       29.61F
PELLA *        CLOUDY    55  50  82 S12       29.66F
PERRY *        CLOUDY    52  50  93 S15       29.57F
$$

IAZ004>006-015-016-023>025-035-036-230800-
   NORTH CENTRAL IOWA

CITY           SKY/WX    TMP DP  RH WIND       PRES   REMARKS
ALGONA *       CLOUDY    52  52 100 S18       29.53F
CLARION *      CLOUDY    50  50 100 S18       29.55F FOG
ESTHERVILLE    CLOUDY    50  49  96 S14       29.49S FOG
FORT DODGE *   CLOUDY    52  48  87 S16G24    29.56F
MASON CITY     CLOUDY    51  50  96 S17G24    29.56F
FOREST CITY *  CLOUDY    52  52 100 S17       29.54F
IOWA FALLS *   CLOUDY    50  48  93 S12       29.60F
$$

IAZ007>011-017>019-026>030-037>042-050>054-066-230800-
   NORTHEAST IOWA

CITY           SKY/WX    TMP DP  RH WIND       PRES   REMARKS
CEDAR RAPIDS   CLOUDY    50  49  96 S12       29.67F
CHARLES CITY * CLOUDY    50  50 100 S14       29.60F FOG
CLINTON *      CLOUDY    50  46  87 S13       29.77F
DECORAH *      CLOUDY    52  50  93 SW13G23   29.61F
DUBUQUE        CLOUDY    47  47 100 S20       29.69F FOG
MONTICELLO *   CLOUDY    50  50 100 S13G20    29.69F FOG
OELWEIN *      CLOUDY    50  50 100 S16       29.64F
WATERLOO       CLOUDY    51  49  92 S12       29.62F
$$

IAZ064-065-067-068-078-230800-
   EAST CENTRAL IOWA

CITY           SKY/WX    TMP DP  RH WIND       PRES   REMARKS
DAVENPORT      CLOUDY    51  47  86 S17       29.74F
IOWA CITY      CLOUDY    51  50  96 S8        29.71F
MT. PLEASANT * CLOUDY    52  50  93 S14G21    29.72F
MUSCATINE *    CLOUDY    52  48  87 S10       29.73F
QUAD CITIES    CLOUDY    53  48  83 S12       29.74F
$$

IAZ062-063-075>077-085>089-095>099-230800-
   SOUTHEAST IOWA

CITY           SKY/WX    TMP DP  RH WIND       PRES   REMARKS
BURLINGTON     CLOUDY    53  50  89 S13       29.73F
FAIRFIELD *    CLOUDY    54  50  87 S14G22    29.69F
FORT MADISON * CLOUDY    55  52  88 S15G22    29.74F
KEOKUK *       CLOUDY    54  50  87 S13G21    29.73F
OSKALOOSA *    CLOUDY    54  50  87 SW15      29.67F
CENTERVILLE *  CLOUDY    54  54 100 S12G20    29.68F
OTTUMWA        CLOUDY    54  49  83 SW15      29.68F
WASHINGTON *   CLOUDY    54  54 100 S14G20    29.70S
$$

ABBREVIATIONS USED IN REMARKS
   TC - TEMPERATURES IN CELSIUS
  WCI - WIND CHILL INDEX
   HX - HEAT INDEX
  VSB - VISIBILITY
$$



USA.gov is the U.S. government's official web portal to all federal, state and local government web resources and services.